Meteo orario Gölbaşı

Oggi, 19 Aprile, Lunedi

Tempo Temperatura Precipitazioni Vento Pressione Umidità
00:00 +20°C° 0 mm 1 m/s 685 mm Hg 52%
01:00 +20°C° 0 mm 1 m/s 685 mm Hg 52%
02:00 +20°C° 0 mm 1 m/s 685 mm Hg 52%
03:00 +20°C° 0 mm 1 m/s 684 mm Hg 53%
04:00 +19°C° 0 mm 1 m/s 684 mm Hg 54%
05:00 +19°C° 0 mm 1 m/s 684 mm Hg 54%
06:00 +19°C° 0 mm 1 m/s 684 mm Hg 55%
07:00 +20°C° 0 mm 1 m/s 684 mm Hg 52%
08:00 +21°C° 0 mm 1 m/s 684 mm Hg 49%
09:00 +22°C° 0 mm 1 m/s 685 mm Hg 46%
10:00 +24°C° 0 mm 1 m/s 685 mm Hg 43%
11:00 +25°C° 0 mm 1 m/s 685 mm Hg 40%
12:00 +26°C° 0 mm 2 m/s 685 mm Hg 37%
13:00 +26°C° 0 mm 2 m/s 685 mm Hg 37%
14:00 +26°C° 0 mm 2 m/s 684 mm Hg 36%
15:00 +27°C° 0 mm 2 m/s 684 mm Hg 36%
16:00 +26°C° 0 mm 2 m/s 684 mm Hg 41%
17:00 +25°C° 0 mm 2 m/s 684 mm Hg 47%
18:00 +24°C° 0 mm 2 m/s 683 mm Hg 52%
19:00 +23°C° 0 mm 2 m/s 683 mm Hg 54%
20:00 +22°C° 0 mm 1 m/s 683 mm Hg 56%
21:00 +22°C° 0 mm 1 m/s 683 mm Hg 57%
22:00 +21°C° 0 mm 1 m/s 682 mm Hg 57%
23:00 +21°C° 0 mm 1 m/s 682 mm Hg 57%

Domani, 20 Aprile, Martedi

Tempo Temperatura Precipitazioni Vento Pressione Umidità
00:00 +21°C° 0 mm 1 m/s 682 mm Hg 57%
01:00 +20°C° 0 mm 1 m/s 681 mm Hg 57%
02:00 +20°C° 0 mm 1 m/s 681 mm Hg 58%
03:00 +19°C° 0 mm 1 m/s 681 mm Hg 59%
04:00 +19°C° 0 mm 1 m/s 681 mm Hg 60%
05:00 +19°C° 0 mm 1 m/s 680 mm Hg 60%
06:00 +19°C° 0 mm 1 m/s 680 mm Hg 61%
07:00 +19°C° 0 mm 2 m/s 681 mm Hg 56%
08:00 +21°C° 0 mm 2 m/s 681 mm Hg 51%
09:00 +22°C° 0 mm 3 m/s 681 mm Hg 46%
10:00 +25°C° 0 mm 3 m/s 681 mm Hg 42%
11:00 +26°C° 0 mm 3 m/s 681 mm Hg 39%
12:00 +27°C° 0 mm 4 m/s 681 mm Hg 36%
13:00 +27°C° 0 mm 4 m/s 681 mm Hg 35%
14:00 +28°C° 0 mm 5 m/s 681 mm Hg 35%
15:00 +28°C° 0 mm 6 m/s 680 mm Hg 34%
16:00 +27°C° 0 mm 5 m/s 680 mm Hg 37%
17:00 +27°C° 0 mm 5 m/s 680 mm Hg 41%
18:00 +26°C° 0 mm 4 m/s 680 mm Hg 44%
19:00 +24°C° 0 mm 3 m/s 680 mm Hg 47%
20:00 +22°C° 0 mm 3 m/s 680 mm Hg 50%
21:00 +20°C° 0 mm 3 m/s 680 mm Hg 54%
22:00 +19°C° 0 mm 3 m/s 679 mm Hg 50%
23:00 +18°C° 0 mm 3 m/s 679 mm Hg 46%

Dopodomani, 21 Aprile, Mercoledi

Tempo Temperatura Precipitazioni Vento Pressione Umidità
00:00 +17°C° 0 mm 2 m/s 679 mm Hg 42%
01:00 +17°C° 0 mm 2 m/s 679 mm Hg 40%
02:00 +16°C° 0 mm 2 m/s 679 mm Hg 37%
03:00 +15°C° 0 mm 2 m/s 679 mm Hg 35%
04:00 +15°C° 0 mm 2 m/s 679 mm Hg 33%
05:00 +14°C° 0 mm 2 m/s 679 mm Hg 31%
06:00 +13°C° 0 mm 2 m/s 679 mm Hg 30%
07:00 +15°C° 0 mm 2 m/s 680 mm Hg 26%
08:00 +17°C° 0 mm 2 m/s 680 mm Hg 23%
09:00 +19°C° 0 mm 2 m/s 681 mm Hg 19%
10:00 +20°C° 0 mm 3 m/s 681 mm Hg 19%
11:00 +21°C° 0 mm 4 m/s 681 mm Hg 20%
12:00 +22°C° 0 mm 4 m/s 682 mm Hg 20%
13:00 +22°C° 0 mm 5 m/s 682 mm Hg 21%
14:00 +22°C° 0 mm 5 m/s 682 mm Hg 22%
15:00 +22°C° 0 mm 5 m/s 682 mm Hg 23%
16:00 +22°C° 0 mm 5 m/s 681 mm Hg 27%
17:00 +21°C° 0 mm 4 m/s 681 mm Hg 32%
18:00 +20°C° 0 mm 3 m/s 681 mm Hg 36%
19:00 +18°C° 0 mm 3 m/s 681 mm Hg 43%
20:00 +17°C° 0 mm 2 m/s 681 mm Hg 50%
21:00 +15°C° 0 mm 2 m/s 681 mm Hg 58%
22:00 +15°C° 0 mm 2 m/s 681 mm Hg 59%
23:00 +15°C° 0 mm 1 m/s 681 mm Hg 61%

22 Aprile, Giovedi

Tempo Temperatura Precipitazioni Vento Pressione Umidità
00:00 +14°C° 0 mm 1 m/s 681 mm Hg 62%
01:00 +14°C° 0 mm 1 m/s 681 mm Hg 64%
02:00 +13°C° 0 mm 1 m/s 681 mm Hg 66%
03:00 +13°C° 0 mm 1 m/s 681 mm Hg 67%
04:00 +13°C° 0 mm 1 m/s 681 mm Hg 67%
05:00 +12°C° 0 mm 1 m/s 681 mm Hg 67%
06:00 +12°C° 0 mm 1 m/s 681 mm Hg 68%
07:00 +14°C° 0 mm 1 m/s 682 mm Hg 61%
08:00 +15°C° 0 mm 1 m/s 682 mm Hg 54%
09:00 +18°C° 0 mm 1 m/s 683 mm Hg 47%
10:00 +19°C° 0 mm 1 m/s 683 mm Hg 44%
11:00 +19°C° 0 mm 2 m/s 683 mm Hg 42%
12:00 +20°C° 0 mm 2 m/s 683 mm Hg 40%
13:00 +21°C° 0 mm 3 m/s 683 mm Hg 38%
14:00 +22°C° 0 mm 3 m/s 683 mm Hg 36%
15:00 +22°C° 0 mm 4 m/s 683 mm Hg 34%
16:00 +22°C° 0 mm 4 m/s 683 mm Hg 36%
17:00 +21°C° 0 mm 4 m/s 682 mm Hg 38%
18:00 +21°C° 0 mm 3 m/s 682 mm Hg 40%
19:00 +19°C° 0 mm 3 m/s 682 mm Hg 45%
20:00 +18°C° 0 mm 2 m/s 682 mm Hg 51%
21:00 +16°C° 0 mm 2 m/s 682 mm Hg 56%
22:00 +16°C° 0 mm 2 m/s 682 mm Hg 57%
23:00 +16°C° 0 mm 2 m/s 682 mm Hg 57%

23 Aprile, Venerdi

Tempo Temperatura Precipitazioni Vento Pressione Umidità
00:00 +15°C° 0 mm 2 m/s 682 mm Hg 58%
01:00 +15°C° 0 mm 2 m/s 682 mm Hg 58%
02:00 +15°C° 0 mm 2 m/s 682 mm Hg 58%
03:00 +14°C° 0 mm 2 m/s 682 mm Hg 58%
04:00 +14°C° 0 mm 2 m/s 682 mm Hg 58%
05:00 +13°C° 0 mm 2 m/s 682 mm Hg 58%
06:00 +13°C° 0 mm 2 m/s 682 mm Hg 58%
07:00 +15°C° 0 mm 2 m/s 683 mm Hg 51%
08:00 +17°C° 0 mm 2 m/s 683 mm Hg 44%
09:00 +19°C° 0 mm 1 m/s 684 mm Hg 37%
10:00 +21°C° 0 mm 1 m/s 684 mm Hg 33%
11:00 +22°C° 0 mm 1 m/s 684 mm Hg 29%
12:00 +21°C° 0 mm 0 m/s 684 mm Hg 26%
13:00 +23°C° 0 mm 1 m/s 684 mm Hg 25%
14:00 +24°C° 0 mm 1 m/s 683 mm Hg 24%
15:00 +25°C° 0 mm 2 m/s 683 mm Hg 23%
16:00 +24°C° 0 mm 2 m/s 683 mm Hg 26%
17:00 +24°C° 0 mm 2 m/s 683 mm Hg 28%
18:00 +23°C° 0 mm 2 m/s 683 mm Hg 30%
19:00 +21°C° 0 mm 2 m/s 683 mm Hg 34%
20:00 +20°C° 0 mm 2 m/s 682 mm Hg 38%
21:00 +19°C° 0 mm 1 m/s 682 mm Hg 41%
22:00 +19°C° 0 mm 1 m/s 682 mm Hg 43%
23:00 +18°C° 0 mm 1 m/s 682 mm Hg 45%

24 Aprile, Sabato

Tempo Temperatura Precipitazioni Vento Pressione Umidità
00:00 +18°C° 0 mm 1 m/s 682 mm Hg 46%
01:00 +16°C° 0 mm 1 m/s 681 mm Hg 47%
02:00 +16°C° 0 mm 1 m/s 681 mm Hg 47%
03:00 +15°C° 0 mm 1 m/s 681 mm Hg 48%
04:00 +15°C° 0 mm 1 m/s 681 mm Hg 49%
05:00 +15°C° 0 mm 1 m/s 681 mm Hg 49%
06:00 +15°C° 0 mm 1 m/s 681 mm Hg 50%
07:00 +18°C° 0 mm 1 m/s 681 mm Hg 44%
08:00 +18°C° 0 mm 0 m/s 682 mm Hg 39%
09:00 +20°C° 0 mm 0 m/s 682 mm Hg 33%
10:00 +23°C° 0 mm 1 m/s 682 mm Hg 32%
11:00 +24°C° 0 mm 1 m/s 682 mm Hg 30%
12:00 +25°C° 0 mm 2 m/s 682 mm Hg 28%
13:00 +25°C° 0 mm 2 m/s 682 mm Hg 28%
14:00 +26°C° 0 mm 3 m/s 682 mm Hg 28%
15:00 +26°C° 0 mm 3 m/s 681 mm Hg 28%
16:00 +25°C° 0 mm 3 m/s 681 mm Hg 31%
17:00 +25°C° 0 mm 3 m/s 681 mm Hg 33%
18:00 +24°C° 0 mm 2 m/s 681 mm Hg 36%
19:00 +23°C° 0 mm 2 m/s 681 mm Hg 40%
20:00 +21°C° 0 mm 2 m/s 681 mm Hg 45%
21:00 +20°C° 0 mm 1 m/s 680 mm Hg 50%
22:00 +20°C° 0 mm 1 m/s 680 mm Hg 51%
23:00 +19°C° 0 mm 1 m/s 680 mm Hg 53%
Mostrare altro

Abbiamo bisogno del tuo consenso

Meteoprog e i nostri fornitori di servizi possono memorizzare e accedere a dati personali come cookie, identificatori di dispositivi o altre tecnologie simili sul tuo dispositivo e possono elaborare tali dati per personalizzare i contenuti e gli annunci, nonché fornire funzionalità dei social media e analizzarne il traffico.

  • Archiviare e/o accedere alle informazioni sul tuo dispositivo

    Cookie, identificatori di dispositivi o altre informazioni possono essere memorizzati o resi accessibili sul tuo dispositivo per le finalità sopra indicate.

  • Annunci e contenuti personalizzati, misurazione di annunci e contenuti, approfondimenti sul pubblico e sviluppo di prodotti

    Gli annunci e i contenuti possono essere personalizzati in base a un profilo. È possibile aggiungere più dati per personalizzare meglio annunci e contenuti. È possibile misurare il rendimento degli annunci e dei contenuti. È possibile ricavare informazioni sul pubblico che ha visto gli annunci e i contenuti. Tali dati possono essere utilizzati per sviluppare o migliorare l'esperienza, i sistemi e il software dell'utente.

Cliccando su “Accetto”, acconsenti all'uso di cookie, identificatori di dispositivo, web beacon o altre tecnologie simili. Puoi modificare le impostazioni nel browser del tuo dispositivo.

Per determinati scopi, è possibile fare affidamento su interessi legali, piuttosto che sul consenso. Puoi approfondire questo argomento consultando la nostra Informativa sulla privacy e sui cookie.